Date String (YYYY-MM-DD hh:mm:ss) UTC,Instrument flags,Ambient pressure (hPa),Sample flow (lpm),Bypass flow (lpm),Sample temperature (°C),Ambient temperature (°C),ASC tube jacket temperature (°C),LED temperature (°C),Box temperature (°C),Sample RH (%),Span deviation,Mass concentration (μg/m³),Mass concentration (μg/m³),Mass concentration (μg/m³)
DateTimeUTC,F1_M11,P_M11,Q1_M11,Q2_M11,T1_M11,T2_M11,T3_M11,T4_M11,T5_M11,U1_M11,ZSPAN_M11,X0_M11,X2_M11,X1_M11
2021-12-19 20:00:00,,0822.7,5.01,0.00,26.1,25.1,00.0,35.1,27.8,03.8,0000.0,0001.28,0000.60,0000.43
2021-12-19 20:01:00,,0822.6,5.00,0.00,26.1,25.1,00.0,35.1,27.9,03.8,0000.0,0001.31,0000.61,0000.43
2021-12-19 20:02:00,,0822.6,5.00,0.00,26.2,25.2,00.0,35.1,27.9,03.9,0000.0,0001.47,0000.62,0000.44
2021-12-19 20:03:00,,0822.7,4.99,0.00,26.2,25.2,00.0,35.1,27.9,03.8,0000.0,0001.64,0000.62,0000.45
2021-12-19 20:04:00,,0822.6,5.01,0.00,26.2,25.2,00.0,35.1,28.0,03.8,0000.0,0001.38,0000.60,0000.44
2021-12-19 20:05:00,,0822.6,5.00,0.00,26.2,25.2,00.0,35.1,28.0,03.8,0000.0,0001.25,0000.59,0000.44
2021-12-19 20:06:00,,0822.3,4.99,0.00,26.2,25.3,00.0,35.1,28.0,03.7,0000.0,0001.22,0000.57,0000.44
2021-12-19 20:07:00,,0822.3,5.02,0.00,26.2,25.3,00.0,35.1,28.0,03.8,0000.0,0001.37,0000.59,0000.44
2021-12-19 20:08:00,,0822.6,5.00,0.00,26.2,25.3,00.0,35.1,28.0,03.8,0000.0,0001.42,0000.62,0000.46
2021-12-19 20:09:00,,0822.4,4.99,0.00,26.2,25.3,00.0,35.1,27.9,03.7,0000.0,0001.41,0000.62,0000.47
2021-12-19 20:10:00,,0822.3,5.00,0.00,26.2,25.3,00.0,35.2,28.0,03.7,0000.0,0001.30,0000.59,0000.46
2021-12-19 20:11:00,,0822.4,5.00,0.00,26.2,25.3,00.0,35.2,28.0,03.7,0000.0,0001.30,0000.58,0000.45
2021-12-19 20:12:00,,0822.6,4.98,0.00,26.2,25.3,00.0,35.2,28.0,03.7,0000.0,0001.26,0000.56,0000.44
2021-12-19 20:13:00,,0822.5,5.01,0.00,26.2,25.3,00.0,35.2,27.9,03.7,0000.0,0001.12,0000.55,0000.43
2021-12-19 20:14:00,,0822.4,4.99,0.00,26.2,25.3,00.0,35.2,27.9,03.7,0000.0,0000.92,0000.54,0000.43
2021-12-19 20:15:00,,0822.5,5.01,0.00,26.2,25.3,00.0,35.2,27.9,03.7,0000.0,0000.93,0000.55,0000.43
2021-12-19 20:16:00,,0822.5,5.00,0.00,26.2,25.3,00.0,35.2,27.9,03.7,0000.0,0000.94,0000.56,0000.43
2021-12-19 20:17:00,,0822.4,5.00,0.00,26.2,25.3,00.0,35.2,27.9,03.7,0000.0,0000.92,0000.56,0000.43
2021-12-19 20:18:00,,0822.4,4.99,0.00,26.2,25.3,00.0,35.2,27.9,03.7,0000.0,0000.82,0000.55,0000.43
2021-12-19 20:19:00,,0822.2,5.01,0.00,26.2,25.3,00.0,35.2,28.0,03.7,0000.0,0000.79,0000.52,0000.40
2021-12-19 20:20:00,,0822.3,4.99,0.00,26.2,25.2,00.0,35.2,27.9,03.7,0000.0,0000.96,0000.56,0000.40
2021-12-19 20:21:00,,0822.4,4.99,0.00,26.1,25.2,00.0,35.1,27.9,03.7,0000.0,0001.10,0000.58,0000.39
2021-12-19 20:22:00,,0822.2,5.01,0.00,26.1,25.2,00.0,35.1,27.9,03.7,0000.0,0001.12,0000.58,0000.39
2021-12-19 20:23:00,,0822.4,5.00,0.00,26.1,25.2,00.0,35.1,27.9,03.6,0000.0,0001.19,0000.61,0000.40
2021-12-19 20:24:00,,0822.4,5.01,0.00,26.1,25.2,00.0,35.1,27.9,03.5,0000.0,0001.28,0000.66,0000.41
2021-12-19 20:25:00,,0822.4,5.00,0.00,26.1,25.1,00.0,35.1,27.9,03.5,0000.0,0001.30,0000.66,0000.41
2021-12-19 20:26:00,,0822.4,5.00,0.00,26.1,25.1,00.0,35.1,27.9,03.6,0000.0,0001.33,0000.68,0000.41
2021-12-19 20:27:00,,0822.2,5.00,0.00,26.1,25.1,00.0,35.1,27.9,03.6,0000.0,0001.41,0000.67,0000.41
2021-12-19 20:28:00,,0822.3,4.99,0.00,26.1,25.1,00.0,35.1,27.8,03.6,0000.0,0001.46,0000.67,0000.41
2021-12-19 20:29:00,,0822.4,5.00,0.00,26.1,25.1,00.0,35.1,27.8,03.6,0000.0,0001.52,0000.66,0000.40
2021-12-19 20:30:00,,0822.4,5.00,0.00,26.1,25.1,00.0,35.1,27.8,03.6,0000.0,0001.49,0000.67,0000.40
2021-12-19 20:31:00,,0822.5,5.01,0.00,26.1,25.1,00.0,35.1,27.8,03.6,0000.0,0001.43,0000.66,0000.40
2021-12-19 20:32:00,,0822.5,5.01,0.00,26.1,25.1,00.0,35.1,27.7,03.6,0000.0,0001.32,0000.65,0000.40
2021-12-19 20:33:00,,0822.5,5.00,0.00,26.0,25.1,00.0,35.1,27.7,03.5,0000.0,0001.24,0000.64,0000.39
2021-12-19 20:34:00,,0822.6,5.00,0.00,26.0,25.1,00.0,35.0,27.7,03.5,0000.0,0001.22,0000.62,0000.38
2021-12-19 20:35:00,,0822.6,5.00,0.00,26.0,25.0,00.0,35.0,27.6,03.6,0000.0,0001.14,0000.57,0000.37
2021-12-19 20:36:00,,0822.5,4.99,0.00,26.0,25.0,00.0,35.0,27.7,03.6,0000.0,0001.19,0000.55,0000.37
2021-12-19 20:37:00,,0822.5,5.00,0.00,26.0,25.0,00.0,35.0,27.7,03.5,0000.0,0001.19,0000.56,0000.37
2021-12-19 20:38:00,,0822.6,5.00,0.00,26.0,25.0,00.0,35.0,27.6,03.5,0000.0,0001.13,0000.57,0000.37
2021-12-19 20:39:00,,0822.5,5.00,0.00,26.0,25.0,00.0,35.0,27.6,03.5,0000.0,0001.35,0000.61,0000.38
2021-12-19 20:40:00,,0822.5,5.00,0.00,26.0,25.0,00.0,35.0,27.7,03.4,0000.0,0004.36,0000.65,0000.38
2021-12-19 20:41:00,,0822.6,4.99,0.00,26.0,25.0,00.0,35.0,27.7,03.4,0000.0,0004.71,0000.68,0000.38
2021-12-19 20:42:00,,0822.6,5.01,0.00,26.0,25.0,00.0,35.0,27.6,03.4,0000.0,0005.31,0000.71,0000.39
2021-12-19 20:43:00,,0822.6,4.99,0.00,26.0,25.0,00.0,35.0,27.6,03.4,0000.0,0005.31,0000.70,0000.40
2021-12-19 20:44:00,,0822.6,5.00,0.00,26.0,24.9,00.0,35.0,27.6,03.4,0000.0,0005.37,0000.72,0000.42
2021-12-19 20:45:00,,0822.6,4.99,0.00,26.0,24.9,00.0,35.0,27.7,03.4,0000.0,0005.40,0000.73,0000.42
2021-12-19 20:46:00,,0822.5,5.00,0.00,26.0,24.9,00.0,35.0,27.6,03.5,0000.0,0005.42,0000.74,0000.43
2021-12-19 20:47:00,,0822.6,4.99,0.00,26.0,24.9,00.0,35.0,27.6,03.5,0000.0,0005.38,0000.74,0000.43
2021-12-19 20:48:00,,0822.5,4.99,0.00,26.0,24.9,00.0,35.0,27.6,03.6,0000.0,0005.36,0000.73,0000.43
2021-12-19 20:49:00,,0822.4,4.99,0.00,26.0,24.9,00.0,35.0,27.6,03.7,0000.0,0005.37,0000.74,0000.44
2021-12-19 20:50:00,,0822.4,5.00,0.00,26.0,24.9,00.0,35.0,27.7,03.7,0000.0,0005.05,0000.69,0000.43
2021-12-19 20:51:00,,0822.4,5.00,0.00,26.0,24.9,00.0,35.0,27.7,03.6,0000.0,0001.89,0000.64,0000.43
2021-12-19 20:52:00,,0822.4,5.00,0.00,26.0,25.0,00.0,35.0,27.8,03.6,0000.0,0001.59,0000.59,0000.43
2021-12-19 20:53:00,,0822.4,5.00,0.00,26.0,25.0,00.0,35.0,27.7,03.7,0000.0,0000.89,0000.53,0000.42
2021-12-19 20:54:00,,0822.4,4.99,0.00,26.0,24.9,00.0,35.0,27.6,03.7,0000.0,0000.88,0000.53,0000.41
2021-12-19 20:55:00,,0822.4,5.01,0.00,26.0,24.9,00.0,35.0,27.6,03.5,0000.0,0000.81,0000.50,0000.40
2021-12-19 20:56:00,,0822.3,4.98,0.00,25.9,25.0,00.0,35.0,27.6,03.4,0000.0,0001.54,0000.49,0000.39
2021-12-19 20:57:00,,0822.3,5.01,0.00,25.9,24.9,00.0,35.0,27.7,03.4,0000.0,0002.00,0000.47,0000.39
2021-12-19 20:58:00,,0822.3,4.99,0.00,25.9,24.9,00.0,34.9,27.7,03.4,0000.0,0002.28,0000.47,0000.39
2021-12-19 20:59:00,,0822.3,5.00,0.00,25.9,24.9,00.0,34.9,27.7,03.4,0000.0,0002.45,0000.46,0000.39
